CDT,Max TemperatureF,Mean TemperatureF,Min TemperatureF,Max Dew PointF,MeanDew PointF,Min DewpointF,Max Humidity, Mean Humidity, Min Humidity, Max Sea Level PressureIn, Mean Sea Level PressureIn, Min Sea Level PressureIn, Max VisibilityMiles, Mean VisibilityMiles, Min VisibilityMiles, Max Wind SpeedMPH, Mean Wind SpeedMPH, Max Gust SpeedMPH,PrecipitationIn, CloudCover, Events, WindDirDegrees
2011-10-1,60,45,29,38,33,28,100,68,36,30.42,30.33,30.26,10,5,0,9,2,13,0.00,3,Fog,116
2011-10-2,73,52,31,47,37,30,100,65,29,30.28,30.22,30.14,10,8,0,10,2,14,0.00,0,Fog,196
2011-10-3,78,59,40,50,44,39,100,65,29,30.25,30.20,30.17,10,6,0,9,2,17,0.00,0,Fog,150
2011-10-4,79,61,43,50,45,42,100,64,28,30.24,30.19,30.12,10,7,1,15,4,21,0.00,0,,153
2011-10-5,83,65,47,52,48,46,93,63,33,30.14,30.11,30.06,10,10,10,14,5,17,0.00,0,,158
2011-10-6,80,64,47,50,48,46,93,63,32,30.16,30.11,30.07,10,10,10,21,9,25,0.00,0,,146
2011-10-7,83,71,58,53,50,45,72,53,33,30.08,30.02,29.93,10,10,10,28,15,37,0.00,0,,161
2011-10-8,84,75,65,55,52,45,63,49,35,30.15,30.08,30.00,10,10,10,22,11,31,0.00,2,,181
2011-10-9,81,67,52,53,51,46,83,57,30,30.25,30.19,30.15,10,10,10,16,5,20,0.00,0,,179
2011-10-10,78,62,46,51,48,45,93,63,32,30.16,30.05,29.94,10,10,10,21,7,26,0.00,1,,159
2011-10-11,74,62,50,56,53,48,100,75,49,29.95,29.90,29.83,10,8,2,15,6,22,0.00,2,,166
2011-10-12,73,64,55,59,55,53,93,75,57,29.83,29.72,29.63,10,8,2,22,5,28,0.27,6,Rain,87
2011-10-13,59,51,43,56,52,42,100,84,67,29.62,29.58,29.54,10,9,6,20,8,25,0.21,7,Rain,293
2011-10-14,54,48,42,42,37,33,92,69,46,29.72,29.63,29.57,10,10,10,26,14,38,0.00,5,,288
2011-10-15,58,50,42,39,36,34,82,61,40,29.81,29.78,29.71,10,10,10,25,13,32,0.00,3,,277
2011-10-16,58,49,39,38,32,25,86,58,30,29.80,29.78,29.73,10,10,10,30,15,39,T,2,,271
2011-10-17,58,49,39,32,28,25,70,50,30,29.82,29.78,29.76,10,10,10,26,12,35,0.00,0,,269
2011-10-18,45,42,39,37,34,26,85,70,55,30.02,29.94,29.80,10,10,10,15,7,21,T,7,Rain,341
2011-10-19,50,44,38,36,34,31,85,69,52,30.06,30.02,29.96,10,10,10,20,9,28,T,6,Rain,10
2011-10-20,52,41,29,37,32,25,85,64,42,29.96,29.90,29.85,10,10,9,20,9,26,0.01,5,Rain,345
2011-10-21,58,42,25,32,28,24,92,60,28,30.07,30.02,29.97,10,10,10,12,3,15,0.00,0,,238
2011-10-22,61,46,30,38,32,29,96,64,32,30.11,30.04,29.99,10,10,10,13,2,16,0.00,0,,346
2011-10-23,58,44,29,49,39,28,100,81,62,29.98,29.87,29.77,10,10,6,17,5,21,0.08,3,Rain,246
2011-10-24,62,48,34,42,39,35,100,70,39,30.05,29.99,29.91,10,10,6,10,3,14,0.00,3,,264
2011-10-25,51,45,38,41,38,36,96,76,56,30.01,29.94,29.86,10,9,4,25,13,32,0.02,7,Rain,50
2011-10-26,51,41,31,36,34,28,92,67,41,30.09,30.05,30.01,10,10,10,10,4,15,0.00,5,,10
2011-10-27,50,38,26,37,31,27,100,75,50,30.12,30.07,30.01,10,6,0,12,3,16,0.03,4,Fog-Rain,218
2011-10-28,52,38,23,34,26,23,100,71,41,30.11,30.06,29.99,10,5,0,10,2,13,0.00,5,Fog,265
2011-10-29,52,39,25,30,25,22,92,62,32,30.09,30.04,30.00,10,10,10,12,2,14,0.00,1,,211
2011-10-30,41,39,37,39,35,24,100,76,51,29.98,29.87,29.80,10,8,2,17,5,22,0.39,8,Rain,62
2011-10-31,48,42,36,38,36,33,100,81,61,30.03,29.99,29.91,10,8,5,13,5,15,0.00,6,,236